Regional Weather Roundup
Issued by NWS

Home | Current Version | Previous Version | Text Only | Print | Product List | Glossary On
Versions: 1 2 3 4 5 6 7 8 9 10 11 12 13 14 15 16 17 18 19 20 21 22 23 24 25 26 27
000
ASUS42 KFFC 240103
RWRGA
WEATHER ROUNDUP FOR GEORGIA
NATIONAL WEATHER SERVICE PEACHTREE CITY GA
900 PM EDT WED APR 23 2014

NOTE: "FAIR" INDICATES FEW OR NO CLOUDS BELOW 12,000 FEET WITH NO
SIGNIFICANT WEATHER AND/OR OBSTRUCTIONS TO VISIBILITY.

* = USE WITH CAUTION. THE STATIONS MARKED WITH AN ASTERISK MAY NOT
REPORT WEATHER SUCH AS PRECIPITATION, FOG, OR THUNDER AND ARE NOT
QUALITY CONTROLLED BY NWS.

THE REMARK "TC" DENOTES TEMPERATURE READING IN DEGREES CELSIUS.

GAZ001>058-240200-
NORTH GEORGIA

CITY           SKY/WX    TMP DP  RH WIND       PRES   REMARKS
ATLANTA        CLEAR     67  34  29 NW8       29.93R
ATHENS         CLEAR     68  38  33 SW3       29.89R
CHAMBLEE       CLEAR     66  33  29 NW7       29.93R
PEACHTREE CITY CLEAR     59  49  69 CALM      29.94R
ROME           CLEAR     61  45  55 CALM      29.93R
WEST ATLANTA   CLEAR     67  34  29 CALM      29.93R
GAINESVILLE    CLEAR     66  38  35 W12       29.93R
CARTERSVILLE   CLEAR     54  43  66 CALM      29.95R


CITY           SKY/WX    TMP DP  RH WIND       PRES   REMARKS
DALTON*        CLEAR     57  43  58 CALM      29.95R
LAWRENCEVILLE* CLEAR     66  36  32 W8        29.91R
MARIETTA       CLEAR     66  35  31 NW5       29.94R
$$

GAZ059>098-102>109-240200-
CENTRAL GEORGIA

CITY           SKY/WX    TMP DP  RH WIND       PRES   REMARKS
AUGUSTA-BUSH   LGT RAIN  62  51  67 CALM      29.87R
AUGUSTA-DANIEL CLEAR     75  38  26 N5        29.89R
COLUMBUS       CLEAR     74  44  34 CALM      29.90R
MACON          CLEAR     62  51  67 CALM      29.90R
ROBINS AFB     CLEAR     65  50  58 CALM      29.89R


CITY           SKY/WX    TMP DP  RH WIND       PRES   REMARKS
LAGRANGE*      CLEAR     59  49  69 CALM      29.92R
SYLVANIA*      CLEAR     67  53  59 CALM      29.88R
MILLEDGEVILLE* CLEAR     64  34  32 CALM      29.89R
$$

GAZ099>101-110>166-240200-
SOUTH GEORGIA

CITY           SKY/WX    TMP DP  RH WIND       PRES   REMARKS
SAVANNAH       CLEAR     71  56  58 SW5       29.87R
VALDOSTA       CLEAR     71  61  70 CALM      29.90R
ALMA           CLEAR     67  59  75 CALM      29.89R
ST SIMONS      CLEAR     71  62  73 CALM      29.89R
FT STEWART     CLEAR     70  62  76 CALM      29.87R
ALBANY         CLEAR     70  61  73 CALM      29.91R
HUNTER AFB     CLEAR     71  55  58 CALM      29.86R
MOODY AFB      CLEAR     71  62  72 CALM      29.90R
BRUNSWICK      CLEAR     70  61  73 CALM      29.89R


CITY           SKY/WX    TMP DP  RH WIND       PRES   REMARKS
BAINBRIDGE*    CLEAR     75  64  69 CALM      29.90R
MOULTRIE*      CLEAR     70  64  83 CALM      29.91R
VIDALIA*       CLEAR     70  55  60 CALM      29.89R
DOUGLAS*       CLEAR    N/A N/A N/A CALM      29.90R
$$



USA.gov is the U.S. government's official web portal to all federal, state and local government web resources and services.